DW9840 Weather Reports


Display with metric or nautical units.
time (UTC)temp
F
wind
direction
speed
MPH
gust
MPH
rain 1hr
in
rain 24hr
in
rain mn
in
humidity
%
barometer
mb
20260505113018 0 0.0 0.0 0.00 0.50 0.02 1013.3
20260505111515 0 0.0 0.0 0.00 0.50 0.02 1013.5
20260505110106 0 0.0 0.0 0.00 0.50 0.02 1013.5
20260505101546 0 0.0 0.0 0.00 0.50 0.02 1013.6
20260505100049 0 0.0 0.0 0.00 0.50 0.02 1013.6
20260505094537 54 204 0.0 0.0 0.01 0.50 0.02 3 1013.4
20260505093033 54 203 0.0 0.0 0.01 0.50 0.02 3 1013.4
20260505091534 54 210 0.0 0.0 0.01 0.50 0.02 3 1013.2
20260505090006 54 223 0.0 0.0 0.01 0.50 0.02 3 1014.0
20260505084502 54 217 0.0 0.0 0.00 0.49 0.01 3 1014.1
20260505083044 54 181 0.0 0.0 0.00 0.49 0.01 3 1014.0
20260505081551 54 200 0.0 0.0 0.00 0.49 0.01 3 1014.0
20260505080014 54 200 0.0 0.0 0.00 0.49 0.01 3 1014.1
20260505074510 54 200 0.0 0.0 0.03 0.49 0.01 3 1014.4
20260505073052 54 205 0.0 0.0 0.04 0.49 0.01 3 1014.2
20260505071545 54 199 0.0 0.0 0.10 0.49 0.01 3 1014.4
20260505070034 54 233 0.0 0.0 0.15 0.49 0.01 3 1014.1
20260505064524 54 177 0.0 0.0 0.12 0.46 0.46 3 1014.6
20260505063023 55 194 0.0 0.0 0.12 0.45 0.45 3 1014.1
20260505061525 55 205 0.0 0.0 0.05 0.38 0.38 3 1014.7
20260505060010 55 141 0.0 0.0 0.02 0.34 0.34 3 1014.6
20260505054513 55 211 0.0 0.0 0.02 0.33 0.33 3 1014.4
20260505053001 55 222 0.0 0.0 0.02 0.33 0.33 3 1014.5
20260505051558 55 158 0.0 0.0 0.02 0.33 0.33 3 1014.4
20260505041505 55 204 0.0 0.0 0.02 0.31 0.31 3 1014.6
20260505040044 55 104 0.0 0.0 0.04 0.31 0.31 3 1014.8
20260505034543 56 127 0.0 0.0 0.04 0.30 0.30 3 1014.6
20260505033029 56 128 0.0 0.0 0.05 0.30 0.30 3 1013.9
20260505031514 56 201 0.0 0.0 0.06 0.28 0.28 3 1013.5
20260505030109 57 198 0.0 0.0 0.05 0.27 0.27 3 1013.7
20260505024605 57 195 0.0 0.0 0.06 0.26 0.26 3 1014.0
20260505023043 58 205 0.0 0.0 0.06 0.25 0.25 3 1014.3
20260505021541 58 208 0.0 0.0 0.06 0.23 0.23 3 1014.2
20260505020016 58 214 0.0 0.0 0.07 0.22 0.22 3 1014.6
20260505014553 59 210 0.0 0.0 0.07 0.20 0.20 3 1014.5
20260505013048 59 208 0.0 0.0 0.08 0.19 0.19 3 1014.5
20260505011537 59 136 0.0 0.0 0.08 0.17 0.17 3 1014.8
20260505010023 60 211 0.0 0.0 0.08 0.15 0.15 3 1014.8
20260505004501 60 203 0.0 0.0 0.07 0.13 0.13 3 1014.7
20260505003057 61 222 0.0 0.0 0.06 0.11 0.11 3 1014.6
20260505001536 61 180 0.0 0.0 0.06 0.09 0.09 3 1014.4
20260505000031 62 226 0.0 0.0 0.05 0.07 0.07 3 1014.6
20260504234509 62 221 0.0 0.0 0.05 0.06 0.06 3 1014.6
20260504233004 62 217 0.0 0.0 0.05 0.05 0.05 3 1014.5
20260504231548 62 208 0.0 0.0 0.03 0.03 0.03 3 1014.4
20260504230044 62 191 0.0 0.0 0.02 0.02 0.02 3 1014.4
20260504224538 61 197 0.0 0.0 0.01 0.01 0.01 17 1014.5
20260504223037 61 229 0.0 0.0 0.00 0.00 0.00 44 1014.4
20260504221536 61 221 0.0 1.0 0.00 0.00 0.00 55 1014.5
20260504220025 62 219 0.0 1.0 0.00 0.00 0.00 54 1014.2
20260504214520 62 200 0.0 1.0 0.00 0.00 0.00 61 1014.2
20260504213015 63 167 0.0 2.0 0.00 0.00 0.00 64 1014.2
20260504211555 63 262 0.0 0.0 0.00 0.00 0.00 62 1014.4
20260504210052 64 232 0.0 3.0 0.00 0.00 0.00 60 1014.3
20260504204534 65 198 0.0 6.0 0.00 0.00 0.00 60 1014.3
20260504203025 65 238 0.0 9.0 0.00 0.00 0.00 60 1014.3
20260504201612 64 231 0.0 4.0 0.00 0.00 0.00 62 1014.3
20260504200108 65 295 0.0 1.0 0.00 0.00 0.00 62 1014.3
20260504194539 65 200 0.0 0.0 0.00 0.00 0.00 61 1014.3
20260504193031 65 196 0.0 1.0 0.00 0.00 0.00 60 1014.4
20260504191509 66 198 0.0 1.0 0.00 0.00 0.00 57 1014.4
20260504184538 67 149 0.0 1.0 0.00 0.00 0.00 59 1014.5
20260504183035 66 232 0.0 0.0 0.00 0.00 0.00 59 1014.5
20260504181513 66 217 0.0 0.0 0.00 0.00 0.00 59 1014.4
20260504180008 66 172 0.0 0.0 0.00 0.00 0.00 59 1014.5
20260504174549 64 113 0.0 0.0 0.00 0.00 0.00 58 1014.5
20260504173042 63 326 0.0 0.0 0.00 0.00 0.00 55 1014.6
20260504171522 63 233 0.0 0.0 0.00 0.00 0.00 24 1014.6
20260504160105 55 211 0.0 0.0 0.00 0.00 0.00 3 1014.5